New Bern, NC

11:56 AM EDT on August 27, 2016 (GMT -0400)
Craven County Regional

Weather History for KEWN - June, 2013

Change the Weather History Date:

Sunday, June 30, 2013

  Actual Average Record
Temperature  
Mean Temperature 79 °F 80 °F  
Max Temperature 84 °F 89 °F 103 °F (1959)
Min Temperature 74 °F 71 °F 57 °F (1964)
Degree Days  
Heating Degree Days 0 0  
Month to date heating degree days 0 0  
Since 1 June heating degree days 0 1  
Since 1 July heating degree days 2585 2702  
Cooling Degree Days 14 15  
Month to date cooling degree days 409 365  
Year to date cooling degree days 665 608  
Since 1 June cooling degree days 409 365  
Growing Degree Days 28 (Base 50)    
Moisture  
Dew Point 73 °F    
Average Humidity 84    
Maximum Humidity 94    
Minimum Humidity 74    
Precipitation  
Precipitation 1.07 in 0.17 in 5.10 in (1962)
Month to date precipitation 8.21 4.59  
Year to date precipitation 19.56 23.98  
Snow  
Snow 0.00 in - - ()
Month to date snowfall 0.0  
Since 1 July snowfall T  
Snow Depth 0.00 in    
Sea Level Pressure  
Sea Level Pressure 29.86 in    
Wind  
Wind Speed 9 mph (South)    
Max Wind Speed 18 mph    
Max Gust Speed 30 mph    
Visibility 8 miles    
Events Fog , Rain    
T = Trace of Precipitation, MM = Missing Value Source: NWS Daily Summary

Daily Weather History Graph

Daily Weather History Graph

Search for Another Location

Airport or City:

Trip Planner

Search our weather history database for the weather conditions in past years. The results will help you decide how hot, cold, wet, or windy it might be!

Date:

Astronomy

Jun. 30, 2013 Rise Set
Actual Time 5:57 AM EDT 8:26 PM EDT
Civil Twilight 5:27 AM EDT 8:55 PM EDT
Nautical Twilight 4:51 AM EDT 9:32 PM EDT
Astronomical Twilight 4:10 AM EDT 10:12 PM EDT
Moon 12:43 AM EDT (6/30) 1:48 PM EDT (6/30)
Length of Visible Light 15h 28m
Length of Day
14h 28m
Last Quarter, 45% of the Moon is Illuminated
Jun 30
Last Quarter
Jul 8
New
Jul 15
First Quarter
Jul 22
Full
Jul 29
Last Quarter

Hourly Weather History & Observations

Time (EDT) Temp. Heat Index Dew Point Humidity Pressure Visibility Wind Dir Wind Speed Gust Speed Precip Events Conditions
12:11 AM 77.0 °F - 73.4 °F 89% 29.81 in 10.0 mi SSW 6.9 mph - 0.00 in   Overcast
12:42 AM 78.8 °F - 73.4 °F 83% 29.81 in 9.0 mi SSW 13.8 mph 19.6 mph 0.01 in Rain Light Rain
12:54 AM 78.1 °F - 73.9 °F 87% 29.81 in 10.0 mi SSW 10.4 mph 18.4 mph 0.01 in Rain Light Rain
1:54 AM 77.0 °F - 72.0 °F 84% 29.82 in 10.0 mi SSW 12.7 mph 19.6 mph 0.00 in   Partly Cloudy
2:54 AM 75.0 °F - 72.0 °F 90% 29.81 in 7.0 mi SSW 4.6 mph - 0.04 in Rain Rain
3:54 AM 75.0 °F - 72.0 °F 90% 29.79 in 9.0 mi South 3.5 mph - 0.18 in Rain Light Rain
4:10 AM 75.2 °F - 73.4 °F 94% 29.79 in 10.0 mi South 3.5 mph - 0.00 in   Mostly Cloudy
4:54 AM 75.9 °F - 73.0 °F 91% 29.79 in 10.0 mi South 9.2 mph - 0.00 in   Mostly Cloudy
5:03 AM 75.2 °F - 73.4 °F 94% 29.79 in 10.0 mi South 6.9 mph - N/A   Scattered Clouds
5:24 AM 75.2 °F - 73.4 °F 94% 29.80 in 10.0 mi South 9.2 mph - N/A   Scattered Clouds
5:54 AM 77.0 °F - 73.9 °F 90% 29.81 in 10.0 mi South 9.2 mph - 0.00 in Rain Light Rain
6:51 AM 75.2 °F - 71.6 °F 89% 29.85 in 1.8 mi SSW 18.4 mph 29.9 mph 0.09 in Rain Heavy Rain
6:54 AM 75.0 °F - 72.0 °F 90% 29.85 in 1.8 mi SSW 16.1 mph 29.9 mph 0.09 in Rain Rain
7:04 AM 73.4 °F - 71.6 °F 94% 29.84 in 1.5 mi SSW 12.7 mph 25.3 mph 0.09 in Rain Heavy Rain
7:10 AM 73.4 °F - 71.6 °F 94% 29.84 in 3.0 mi SW 12.7 mph 19.6 mph 0.10 in Rain Rain
7:54 AM 73.9 °F - 71.1 °F 91% 29.84 in 10.0 mi SSW 8.1 mph - 0.18 in Rain Light Rain
8:54 AM 75.0 °F - 72.0 °F 90% 29.85 in 10.0 mi SW 5.8 mph - 0.05 in Rain Light Rain
9:07 AM 75.2 °F - 71.6 °F 89% 29.86 in 10.0 mi SW 4.6 mph - 0.00 in   Scattered Clouds
9:20 AM 75.2 °F - 71.6 °F 89% 29.87 in 2.5 mi SW 11.5 mph 18.4 mph 0.05 in Rain Rain
9:22 AM 75.2 °F - 71.6 °F 89% 29.87 in 1.5 mi SW 13.8 mph 21.9 mph 0.12 in Rain Heavy Rain
9:27 AM 73.4 °F - 71.6 °F 94% 29.87 in 0.5 mi SW 10.4 mph 21.9 mph 0.26 in Fog , Rain Heavy Rain
9:33 AM 75.2 °F - 71.6 °F 89% 29.86 in 1.0 mi SSW 9.2 mph - 0.28 in Rain Rain
9:43 AM 75.2 °F - 71.6 °F 89% 29.86 in 2.5 mi SSW 6.9 mph - 0.32 in Rain Rain
9:54 AM 75.0 °F - 72.0 °F 90% 29.87 in 2.5 mi South 9.2 mph - 0.36 in Rain Rain
10:04 AM 75.2 °F - 71.6 °F 89% 29.86 in 4.0 mi South 5.8 mph - 0.01 in Rain Light Rain
10:54 AM 75.9 °F - 73.0 °F 91% 29.87 in 10.0 mi SSE 9.2 mph - 0.01 in Rain Light Rain
11:54 AM 75.9 °F - 73.0 °F 91% 29.88 in 5.0 mi South 10.4 mph 20.7 mph 0.13 in Rain Rain
12:54 PM 77.0 °F - 73.0 °F 88% 29.86 in 10.0 mi South 6.9 mph - 0.03 in   Partly Cloudy
1:54 PM 81.0 °F 86.2 °F 73.9 °F 79% 29.86 in 10.0 mi South 8.1 mph - N/A   Partly Cloudy
2:25 PM 80.6 °F 85.4 °F 73.4 °F 79% 29.87 in 10.0 mi South 10.4 mph - N/A   Mostly Cloudy
2:36 PM 78.8 °F - 73.4 °F 83% 29.87 in 10.0 mi South 10.4 mph - 0.00 in Rain Light Rain
2:54 PM 79.0 °F - 73.9 °F 84% 29.87 in 10.0 mi South 8.1 mph - 0.00 in Rain Light Rain
3:02 PM 78.8 °F - 73.4 °F 83% 29.87 in 10.0 mi South 8.1 mph - 0.00 in Rain Light Rain
3:16 PM 78.8 °F - 75.2 °F 89% 29.87 in 10.0 mi South 8.1 mph - 0.00 in Rain Light Rain
3:27 PM 80.6 °F 86.2 °F 75.2 °F 84% 29.86 in 10.0 mi South 9.2 mph - 0.00 in Rain Light Rain
3:39 PM 80.6 °F 86.2 °F 75.2 °F 84% 29.86 in 10.0 mi South 10.4 mph - 0.00 in Rain Light Rain
3:54 PM 81.0 °F 86.2 °F 73.9 °F 79% 29.86 in 10.0 mi South 10.4 mph 20.7 mph 0.00 in   Mostly Cloudy
4:15 PM 80.6 °F 85.4 °F 73.4 °F 79% 29.85 in 10.0 mi South 9.2 mph 18.4 mph N/A   Mostly Cloudy
4:54 PM 82.0 °F 87.9 °F 73.9 °F 76% 29.84 in 10.0 mi South 9.2 mph - N/A   Scattered Clouds
5:07 PM 84.2 °F 90.9 °F 73.4 °F 70% 29.84 in 10.0 mi South 12.7 mph 21.9 mph N/A   Mostly Cloudy
5:15 PM 82.4 °F 88.2 °F 73.4 °F 74% 29.84 in 10.0 mi South 11.5 mph - N/A   Scattered Clouds
5:54 PM 82.0 °F 87.4 °F 73.0 °F 74% 29.84 in 10.0 mi South 11.5 mph - N/A   Clear
6:54 PM 82.0 °F 87.4 °F 73.0 °F 74% 29.88 in 10.0 mi South 9.2 mph - N/A   Partly Cloudy
7:54 PM 80.1 °F 84.2 °F 73.0 °F 79% 29.89 in 10.0 mi South 10.4 mph - N/A   Partly Cloudy
8:44 PM 80.6 °F 86.2 °F 75.2 °F 84% 29.90 in 10.0 mi South 10.4 mph - N/A   Mostly Cloudy
8:54 PM 80.1 °F 85.1 °F 75.0 °F 85% 29.91 in 10.0 mi South 10.4 mph - N/A   Mostly Cloudy
9:33 PM 78.8 °F - 73.4 °F 83% 29.92 in 10.0 mi South 9.2 mph - N/A   Scattered Clouds
9:54 PM 79.0 °F - 73.9 °F 84% 29.92 in 10.0 mi South 8.1 mph - N/A   Partly Cloudy
10:52 PM 78.8 °F - 73.4 °F 83% 29.93 in 10.0 mi South 6.9 mph - N/A   Mostly Cloudy
10:54 PM 78.1 °F - 73.9 °F 87% 29.94 in 10.0 mi South 9.2 mph - N/A   Mostly Cloudy
11:54 PM 79.0 °F - 75.0 °F 88% 29.93 in 10.0 mi South 9.2 mph - N/A   Mostly Cloudy